AirNav   Air Wisconsin Up To $57,000 Bonus
 
 887 users online  

C81 Campbell Airport
Grayslake, Illinois, USA

GOING TO GRAYSLAKE?


FAA INFORMATION EFFECTIVE 05 NOVEMBER 2020

Location

FAA Identifier: C81
Lat/Long: 42-19-28.6000N 088-04-26.7170W
42-19.476667N 088-04.445283W
42.3246111,-88.0740881
(estimated)
Elevation: 788 ft. / 240.2 m (surveyed)
Variation: 02W (1995)
From city: 2 miles SW of GRAYSLAKE, IL
Time zone: UTC -6 (UTC -5 during Daylight Saving Time)
Zip code: 60030

Airport Operations

Airport use: Open to the public
Activation date: 02/1964
Control tower: no
ARTCC: CHICAGO CENTER
FSS: KANKAKEE FLIGHT SERVICE STATION
NOTAMs facility: IKK (NOTAM-D service available)
Attendance: MON-FRI 0830-1600, ALL SAT-SUN UNATTENDED
Pattern altitude: 1588 ft. MSL
Wind indicator: lighted
Segmented circle: no
Beacon: white-green (lighted land airport)
Operates sunset to sunrise.

Airport Communications

CTAF/UNICOM: 122.7
CHICAGO APPROACH: 120.55
CHICAGO DEPARTURE: 120.55
WX ASOS at UGN (11 nm NE): PHONE 847-782-0876
WX ASOS at PWK (15 nm SE): PHONE 847-465-0291
WX ASOS at ENW (18 nm N): PHONE 262-652-7730

Nearby radio navigation aids

VOR radial/distance  VOR name  Freq  Var
OBKr321/8.2NORTHBROOK VOR/DME113.0002W
DPAr023/28.8DUPAGE VOR/DME108.4002E

 
NDB name  Hdg/Dist  Freq  Var  ID
CODEE190/14.338902WEN . -.
WAUKE238/14.737903WUG ..- --.

Airport Services

Fuel available: 100LL
Parking: tiedowns
Airframe service: MAJOR
Powerplant service: MAJOR
Bottled oxygen: NONE
Bulk oxygen: NONE

Runway Information

Runway 6/24

Dimensions: 3573 x 40 ft. / 1089 x 12 m
SW 1000 FT TURF-GRVL.
Surface: asphalt/turf, in fair condition
PAVEMENT HAS SEVERAL AREAS OF DEPRESSIONS. RWY EDGES DROP OFF IN EXCESS OF 2 INCHES.
RUNWAY 6  RUNWAY 24
Latitude: 42-19.355167N42-19.664050N
Longitude: 088-04.784833W088-04.110083W
Elevation: 779.0 ft.778.0 ft.
Traffic pattern: leftleft
Runway heading: 060 magnetic, 058 true240 magnetic, 238 true
Displaced threshold: no301 ft.
RWY 24 NSTD DSPLCD THLD WHITE STRIPE MKGS ONLY. MARKED FOR RY 06 ON SW BEGINNING OF PAVED SURFACE.
Markings: numbers only, in good conditionnumbers only, in good condition
Runway end identifier lights: nono
Touchdown point: yes, no lightsyes, no lights
Obstructions: 27 ft. trees, 362 ft. from runway, 85 ft. right of centerline, 13:1 slope to clear78 ft. tree, 1540 ft. from runway, 86 ft. left of centerline, 17:1 slope to clear
+15 FT RD ADJ RWY END L & R.

Runway 9/27

Dimensions: 3270 x 40 ft. / 997 x 12 m
Surface: asphalt, in fair condition
Runway edge lights: non-standard
LIRL SPACING & LGT INTST VARIES.
Operational restrictions: RWY 09 & 27 NSTD TRIL OTS INDEFLY.
RUNWAY 9  RUNWAY 27
Latitude: 42-19.442133N42-19.440650N
Longitude: 088-04.803517W088-04.078117W
Elevation: 777.0 ft.788.0 ft.
Traffic pattern: leftleft
Runway heading: 092 magnetic, 090 true272 magnetic, 270 true
Markings: numbers only, in good conditionnumbers only, in good condition
Visual slope indicator: tri-color VASI on left (4.00 degrees glide path)
NSTD TRIL OPR DUSK-DAWN.
tri-color VASI on left (4.00 degrees glide path)
NSTD TRIL OPR DUSK-DAWN.
Runway end identifier lights: nono
Touchdown point: yes, no lightsyes, no lights

Airport Ownership and Management from official FAA records

Ownership: Privately-owned
Owner: KANE ILL PROPERTIES
PO BOX 474, SUITE 401
GRAYSLAKE, IL 60030
Phone 847-201-1618
Manager: PETER KANE
PO BOX 474, 22731 W. TOWNLINE RD
GRAYSLAKE, IL 60030
Phone (847) 201-1618
EMAIL ADDRESS: PJK201@AOL.COM (ALL LOWER CASE)

Airport Operational Statistics

Aircraft operations: avg 82/day *
67% transient general aviation
33% local general aviation
* for 12-month period ending 31 July 2019

Additional Remarks

NO TOUCH & GO LNDG PERMITTED.
UNLGTD POWER LINES 167 FT AGL 3/4 MILE S OF RWY 09/27.
NUMEROUS MIGRATORY BIRDS INVOF ARPT.
TWYS WITH NSTD SPACING AND CLEARANCES INVOF RAMP APRON.
FOR CD CTC CHICAGO APCH AT 847-289-0926.

Instrument Procedures

NOTE: All procedures below are presented as PDF files. If you need a reader for these files, you should download the free Adobe Reader.

NOT FOR NAVIGATION. Please procure official charts for flight.
FAA instrument procedures published for use from 05 November 2020 at 0901Z to 03 December 2020 at 0900z.

 
IAPs - Instrument Approach Procedures
RNAV (GPS)-B **CHANGED**   download (174KB)
NOTE: Special Take-Off Minimums/Departure Procedures apply   download (201KB)

Other nearby airports with instrument procedures:

KUGN - Waukegan National Airport (11 nm NE)
3CK - Lake in the Hills Airport (13 nm SW)
10C - Galt Field Airport (14 nm W)
KPWK - Chicago Executive Airport (15 nm SE)
KENW - Kenosha Regional Airport (18 nm N)
 
Loc | Ops | Rwys | IFR | FBO | Links
Com | Nav | Svcs | Stats | Notes
Area around C81 (Campbell Airport)
 
Road maps at: MapQuest Bing Google
 
Aerial photo
WARNING: Photo may not be current or correct
Aerial photo of C81 (Campbell Airport)
Photo taken 05-Jul-2009

Do you have a better or more recent aerial photo of Campbell Airport that you would like to share? If so, please send us your photo.

 
Sectional chart

 
Airport distance calculator
Flying to Campbell Airport? Find the distance to fly.

From to C81

Sunrise and sunset
Times for 26-Nov-2020
 Local
(UTC-6)
 Zulu
(UTC)
Morning civil twilight06:2712:27
Sunrise06:5812:58
Sunset16:2222:22
Evening civil twilight16:5322:53

Current date and time
Zulu (UTC)  26-Nov-2020 22:06:54
Local (UTC-6)  26-Nov-2020 16:06:54
 
METAR
KUGN 
11nm NE 
261855Z 23015G24KT 10SM BKN020 07/02 A2996 RMK AO2 SLP152 T00720022 $
KPWK 
15nm SE 
261852Z 24011KT 10SM OVC022 08/02 A3000 RMK AO2 SLP162 T00780022
KENW 
18nm N 
261853Z 23015G25KT 10SM OVC020 08/03 A2996 RMK AO2 SLP151 T00780028
K06C 
20nm S 
261915Z AUTO 23009G17KT 10SM OVC018 07/03 A2999 RMK AO2 T00660028
KORD 
21nm S 
261851Z 24011KT 10SM BKN021 08/03 A2999 RMK AO2 SLP158 T00780028
TAF
KENW 
18nm N 
261733Z 2618/2718 23012G20KT P6SM SCT017 BKN020 FM262300 23007KT P6SM BKN019 FM270500 26005KT P6SM OVC016 FM270800 28005KT P6SM OVC021 FM271500 28007KT P6SM BKN035
KORD 
21nm S 
261737Z 2618/2724 23011KT P6SM OVC020 FM270900 28006KT P6SM SCT009 OVC020 TEMPO 2711/2715 BKN009 FM271800 29010KT P6SM SCT020
NOTAMs
Click for the latest NOTAMs
NOTAMs are issued by the DoD/FAA and will open in a separate window not controlled by AirNav.

 

 
 

FBO, Fuel Providers, and Aircraft Ground Support

  
 Business Name 
 
 Contact 
 
 Services / Description 
 
Fuel Prices
 
Comments
  
Campbell Airport, LLC no information available

If you are affiliated with Campbell Airport, LLC and would like to show here your services, contact info, web link, logo, and more, click here
100LL
SS $3.89 
 Updated 09-Nov-2020
 
   1 read write
SS=Self service
Update Fuel Prices
 

Would you like to see your business listed on this page?

 If your business provides an interesting product or service to pilots, flight crews, aircraft, or users of the Campbell Airport, you should consider listing it here.  To start the listing process, click on the button below
 
Add a business
 

Other Pages about Campbell Airport

Update a link
 
Copyright © AirNav, LLC. All rights reserved. Privacy Policy  Contact